Weather in Lapygino

Russia / Belgorod Oblast     51°21′41″N   37°57′32″E
temp.,
°C
wind,
m/s
gust,
m/s
humid.,
%
clouds,
%
prec.,
mm/h
press.,
hPa
HPBL,
m
29 july, thu
thu2900:00+19e117370 0.6 101213
03:00+17wsw22833 1.8 101214
06:00+18wsw22873 0.1 101152
09:00+24wnw34645 0.1 1011455
12:00+28wnw344635 0.0 10101480
15:00+31nw453685 0.0 10092680
18:00+26wnw124913 0.0 100821
21:00+23se3356100 0.0 100830
30 july, fri
fri3000:00+21sw236899 0.0 100931
03:00+20s337522 0.1 100833
06:00+20sw257936 0.0 1008137
09:00+26wsw45575 0.0 1008610
12:00+31sw454357 0.0 10071918
15:00+30w4643100 0.0 1006701
18:00+28nw365443 0.0 1005495
21:00+23wsw1172100 0.9 100821
31 july, sat
sat3100:00+20wnw3490100 3.3 100878
03:00+20nnw2383100 3.3 100844
06:00+19nw22810 0.0 100944
09:00+24nw33560 0.0 1010494
12:00+28nnw34370 0.0 10101931
15:00+30nw34330 0.0 10102289
18:00+29nnw34390 0.0 1009746
21:00+23se11536 0.0 101111
1 august, sun
sun100:00+21ssw1159100 0.0 101211
03:00+20ssw11646 0.0 101211
06:00+20sw12660 0.0 101312
09:00+27s33460 0.0 1013475
12:00+31s34340 0.0 10122161
15:00+32s34330 0.0 10112370
18:00+31ssw34390 0.0 10101307
21:00+25s22510 0.0 101113
2 august, mon
mon200:00+23s23605 0.0 101121
03:00+21sse33715 0.0 101140
06:00+22s23700 0.0 101161
09:00+29ssw34474 0.0 1010483
12:00+33ssw57335 0.0 10092514
15:00+34ssw5627100 0.0 10082968
18:00+33s463237 0.0 1006713
21:00+24e115491 0.1 100711